Year,Month,Day,Hour,Minute,Value (Times are PST for temperature in C)
2007,07,09,00,00,14.80
2007,07,09,00,01,14.80
2007,07,09,00,02,14.80
2007,07,09,00,03,14.80
2007,07,09,00,04,14.80
2007,07,09,00,05,14.70
2007,07,09,00,06,14.70
2007,07,09,00,07,14.70
2007,07,09,00,08,14.70
2007,07,09,00,09,14.70
2007,07,09,00,10,14.70
2007,07,09,00,11,14.70
2007,07,09,00,12,14.70
2007,07,09,00,13,14.60
2007,07,09,00,14,14.60
2007,07,09,00,15,14.60
2007,07,09,00,16,14.50
2007,07,09,00,17,14.50
2007,07,09,00,18,14.50
2007,07,09,00,19,14.40
2007,07,09,00,20,14.40
2007,07,09,00,21,14.40
2007,07,09,00,22,14.30
2007,07,09,00,23,14.30
2007,07,09,00,24,14.30
2007,07,09,00,25,14.30
2007,07,09,00,26,14.20
2007,07,09,00,27,14.20
2007,07,09,00,28,14.20
2007,07,09,00,29,14.10
2007,07,09,00,30,14.10
2007,07,09,00,31,14.10
2007,07,09,00,32,14.10
2007,07,09,00,33,14.10
2007,07,09,00,34,14.00
2007,07,09,00,35,14.00
2007,07,09,00,36,14.00
2007,07,09,00,37,14.00
2007,07,09,00,38,13.90
2007,07,09,00,39,13.90
2007,07,09,00,40,13.90
2007,07,09,00,41,13.90
2007,07,09,00,42,13.90
2007,07,09,00,43,13.90
2007,07,09,00,44,13.90
2007,07,09,00,45,13.90
2007,07,09,00,46,13.90
2007,07,09,00,47,13.90
2007,07,09,00,48,13.80
2007,07,09,00,49,13.80
2007,07,09,00,50,13.80
2007,07,09,00,51,13.80
2007,07,09,00,52,13.80
2007,07,09,00,53,13.80
2007,07,09,00,54,13.80
2007,07,09,00,55,13.80
2007,07,09,00,56,13.80
2007,07,09,00,57,13.80
2007,07,09,00,58,13.80
2007,07,09,00,59,13.80
2007,07,09,01,00,13.80
2007,07,09,01,01,13.80
2007,07,09,01,02,13.80
2007,07,09,01,03,13.80
2007,07,09,01,04,13.80
2007,07,09,01,05,13.70
2007,07,09,01,06,13.70
2007,07,09,01,07,13.70
2007,07,09,01,08,13.70
2007,07,09,01,09,13.70
2007,07,09,01,10,13.70
2007,07,09,01,11,13.70
2007,07,09,01,12,13.70
2007,07,09,01,13,13.70
2007,07,09,01,14,13.60
2007,07,09,01,15,13.60
2007,07,09,01,16,13.60
2007,07,09,01,17,13.60
2007,07,09,01,18,13.60
2007,07,09,01,19,13.50
2007,07,09,01,20,13.50
2007,07,09,01,21,13.50
2007,07,09,01,22,13.40
2007,07,09,01,23,13.40
2007,07,09,01,24,13.40
2007,07,09,01,25,13.40
2007,07,09,01,26,13.40
2007,07,09,01,27,13.40
2007,07,09,01,28,13.40
2007,07,09,01,29,13.40
2007,07,09,01,30,13.40
2007,07,09,01,31,13.40
2007,07,09,01,32,13.40
2007,07,09,01,33,13.40
2007,07,09,01,34,13.40
2007,07,09,01,35,13.40
2007,07,09,01,36,13.40
2007,07,09,01,37,13.40
2007,07,09,01,38,13.40
2007,07,09,01,39,13.40
2007,07,09,01,40,13.40
2007,07,09,01,41,13.40
2007,07,09,01,42,13.40
2007,07,09,01,43,13.40
2007,07,09,01,44,13.40
2007,07,09,01,45,13.40
2007,07,09,01,46,13.40
2007,07,09,01,47,13.40
2007,07,09,01,48,13.40
2007,07,09,01,49,13.40
2007,07,09,01,50,13.40
2007,07,09,01,51,13.40
2007,07,09,01,52,13.40
2007,07,09,01,53,13.40
2007,07,09,01,54,13.40
2007,07,09,01,55,13.40
2007,07,09,01,56,13.40
2007,07,09,01,57,13.40
2007,07,09,01,58,13.40
2007,07,09,01,59,13.40
2007,07,09,02,00,13.40
2007,07,09,02,01,13.40
2007,07,09,02,02,13.40
2007,07,09,02,03,13.40
2007,07,09,02,04,13.40
2007,07,09,02,05,13.30
2007,07,09,02,06,13.30
2007,07,09,02,07,13.30
2007,07,09,02,08,13.30
2007,07,09,02,09,13.30
2007,07,09,02,10,13.30
2007,07,09,02,11,13.30
2007,07,09,02,12,13.30
2007,07,09,02,13,13.30
2007,07,09,02,14,13.30
2007,07,09,02,15,13.30
2007,07,09,02,16,13.30
2007,07,09,02,17,13.30
2007,07,09,02,18,13.30
2007,07,09,02,19,13.30
2007,07,09,02,20,13.30
2007,07,09,02,21,13.30
2007,07,09,02,22,13.20
2007,07,09,02,23,13.20
2007,07,09,02,24,13.20
2007,07,09,02,25,13.20
2007,07,09,02,26,13.20
2007,07,09,02,27,13.10
2007,07,09,02,28,13.10
2007,07,09,02,29,13.10
2007,07,09,02,30,13.10
2007,07,09,02,31,13.00
2007,07,09,02,32,13.00
2007,07,09,02,33,13.00
2007,07,09,02,34,12.90
2007,07,09,02,35,12.90
2007,07,09,02,36,12.90
2007,07,09,02,37,12.90
2007,07,09,02,38,12.80
2007,07,09,02,39,12.80
2007,07,09,02,40,12.80
2007,07,09,02,41,12.80
2007,07,09,02,42,12.80
2007,07,09,02,43,12.80
2007,07,09,02,44,12.80
2007,07,09,02,45,12.80
2007,07,09,02,46,12.70
2007,07,09,02,47,12.70
2007,07,09,02,48,12.70
2007,07,09,02,49,12.70
2007,07,09,02,50,12.70
2007,07,09,02,51,12.70
2007,07,09,02,52,12.70
2007,07,09,02,53,12.70
2007,07,09,02,54,12.70
2007,07,09,02,55,12.70
2007,07,09,02,56,12.70
2007,07,09,02,57,12.70
2007,07,09,02,58,12.70
2007,07,09,02,59,12.70
2007,07,09,03,00,12.70
2007,07,09,03,01,12.70
2007,07,09,03,02,12.70
2007,07,09,03,03,12.60
2007,07,09,03,04,12.60
2007,07,09,03,05,12.60
2007,07,09,03,06,12.60
2007,07,09,03,07,12.60
2007,07,09,03,08,12.60
2007,07,09,03,09,12.60
2007,07,09,03,10,12.60
2007,07,09,03,11,12.60
2007,07,09,03,12,12.60
2007,07,09,03,13,12.60
2007,07,09,03,14,12.60
2007,07,09,03,15,12.60
2007,07,09,03,16,12.60
2007,07,09,03,17,12.60
2007,07,09,03,18,12.60
2007,07,09,03,19,12.60
2007,07,09,03,20,12.60
2007,07,09,03,21,12.60
2007,07,09,03,22,12.60
2007,07,09,03,23,12.60
2007,07,09,03,24,12.60
2007,07,09,03,25,12.60
2007,07,09,03,26,12.60
2007,07,09,03,27,12.60
2007,07,09,03,28,12.60
2007,07,09,03,29,12.50
2007,07,09,03,30,12.50
2007,07,09,03,31,12.50
2007,07,09,03,32,12.50
2007,07,09,03,33,12.40
2007,07,09,03,34,12.40
2007,07,09,03,35,12.40
2007,07,09,03,36,12.40
2007,07,09,03,37,12.40
2007,07,09,03,38,12.30
2007,07,09,03,39,12.30
2007,07,09,03,40,12.30
2007,07,09,03,41,12.30
2007,07,09,03,42,12.30
2007,07,09,03,43,12.30
2007,07,09,03,44,12.30
2007,07,09,03,45,12.20
2007,07,09,03,46,12.20
2007,07,09,03,47,12.20
2007,07,09,03,48,12.20
2007,07,09,03,49,12.20
2007,07,09,03,50,12.20
2007,07,09,03,51,12.20
2007,07,09,03,52,12.10
2007,07,09,03,53,12.10
2007,07,09,03,54,12.10
2007,07,09,03,55,12.10
2007,07,09,03,56,12.00
2007,07,09,03,57,12.00
2007,07,09,03,58,12.00
2007,07,09,03,59,12.00
2007,07,09,04,00,11.90
2007,07,09,04,01,11.90
2007,07,09,04,02,11.90
2007,07,09,04,03,11.90
2007,07,09,04,04,11.90
2007,07,09,04,05,11.90
2007,07,09,04,06,11.80
2007,07,09,04,07,11.80
2007,07,09,04,08,11.80
2007,07,09,04,09,11.80
2007,07,09,04,10,11.80
2007,07,09,04,11,11.80
2007,07,09,04,12,11.80
2007,07,09,04,13,11.90
2007,07,09,04,14,11.90
2007,07,09,04,15,12.00
2007,07,09,04,16,12.00
2007,07,09,04,17,12.10
2007,07,09,04,18,12.10
2007,07,09,04,19,12.10
2007,07,09,04,20,12.10
2007,07,09,04,21,12.00
2007,07,09,04,22,12.00
2007,07,09,04,23,12.00
2007,07,09,04,24,12.00
2007,07,09,04,25,11.90
2007,07,09,04,26,12.00
2007,07,09,04,27,12.00
2007,07,09,04,28,12.00
2007,07,09,04,29,12.00
2007,07,09,04,30,12.00
2007,07,09,04,31,12.00
2007,07,09,04,32,12.10
2007,07,09,04,33,12.10
2007,07,09,04,34,12.10
2007,07,09,04,35,12.10
2007,07,09,04,36,12.10
2007,07,09,04,37,12.10
2007,07,09,04,38,12.10
2007,07,09,04,39,12.10
2007,07,09,04,40,12.10
2007,07,09,04,41,12.10
2007,07,09,04,42,12.10
2007,07,09,04,43,12.10
2007,07,09,04,44,12.10
2007,07,09,04,45,12.10
2007,07,09,04,46,12.10
2007,07,09,04,47,12.10
2007,07,09,04,48,12.10
2007,07,09,04,49,12.10
2007,07,09,04,50,12.10
2007,07,09,04,51,12.10
2007,07,09,04,52,12.10
2007,07,09,04,53,12.10
2007,07,09,04,54,12.10
2007,07,09,04,55,12.10
2007,07,09,04,56,12.10
2007,07,09,04,57,12.10
2007,07,09,04,58,12.20
2007,07,09,04,59,12.20
2007,07,09,05,00,12.20
2007,07,09,05,01,12.20
2007,07,09,05,02,12.20
2007,07,09,05,03,12.30
2007,07,09,05,04,12.30
2007,07,09,05,05,12.30
2007,07,09,05,06,12.30
2007,07,09,05,07,12.30
2007,07,09,05,08,12.30
2007,07,09,05,09,12.30
2007,07,09,05,10,12.30
2007,07,09,05,11,12.30
2007,07,09,05,12,12.30
2007,07,09,05,13,12.30
2007,07,09,05,14,12.20
2007,07,09,05,15,12.20
2007,07,09,05,16,12.20
2007,07,09,05,17,12.20
2007,07,09,05,18,12.20
2007,07,09,05,19,12.20
2007,07,09,05,20,12.20
2007,07,09,05,21,12.20
2007,07,09,05,22,12.10
2007,07,09,05,23,12.10
2007,07,09,05,24,12.10
2007,07,09,05,25,12.10
2007,07,09,05,26,12.10
2007,07,09,05,27,12.20
2007,07,09,05,28,12.20
2007,07,09,05,29,12.20
2007,07,09,05,30,12.20
2007,07,09,05,31,12.20
2007,07,09,05,32,12.20
2007,07,09,05,33,12.20
2007,07,09,05,34,12.20
2007,07,09,05,35,12.20
2007,07,09,05,36,12.20
2007,07,09,05,37,12.20
2007,07,09,05,38,12.20
2007,07,09,05,39,12.20
2007,07,09,05,40,12.20
2007,07,09,05,41,12.20
2007,07,09,05,42,12.20
2007,07,09,05,43,12.20
2007,07,09,05,44,12.20
2007,07,09,05,45,12.20
2007,07,09,05,46,12.30
2007,07,09,05,47,12.30
2007,07,09,05,48,12.30
2007,07,09,05,49,12.30
2007,07,09,05,50,12.40
2007,07,09,05,51,12.40
2007,07,09,05,52,12.50
2007,07,09,05,53,12.50
2007,07,09,05,54,12.60
2007,07,09,05,55,12.60
2007,07,09,05,56,12.60
2007,07,09,05,57,12.70
2007,07,09,05,58,12.60
2007,07,09,05,59,12.60
2007,07,09,06,00,12.60
2007,07,09,06,01,12.60
2007,07,09,06,02,12.60
2007,07,09,06,03,12.60
2007,07,09,06,04,12.70
2007,07,09,06,05,12.70
2007,07,09,06,06,12.70
2007,07,09,06,07,12.70
2007,07,09,06,08,12.70
2007,07,09,06,09,12.70
2007,07,09,06,10,12.80
2007,07,09,06,11,12.80
2007,07,09,06,12,12.80
2007,07,09,06,13,12.80
2007,07,09,06,14,12.80
2007,07,09,06,15,12.90
2007,07,09,06,16,12.90
2007,07,09,06,17,13.00
2007,07,09,06,18,13.00
2007,07,09,06,19,13.10
2007,07,09,06,20,13.10
2007,07,09,06,21,13.20
2007,07,09,06,22,13.20
2007,07,09,06,23,13.30
2007,07,09,06,24,13.30
2007,07,09,06,25,13.40
2007,07,09,06,26,13.50
2007,07,09,06,27,13.60
2007,07,09,06,28,13.60
2007,07,09,06,29,13.70
2007,07,09,06,30,13.70
2007,07,09,06,31,13.80
2007,07,09,06,32,13.80
2007,07,09,06,33,13.90
2007,07,09,06,34,14.00
2007,07,09,06,35,14.10
2007,07,09,06,36,14.10
2007,07,09,06,37,14.20
2007,07,09,06,38,14.30
2007,07,09,06,39,14.30
2007,07,09,06,40,14.40
2007,07,09,06,41,14.50
2007,07,09,06,42,14.60
2007,07,09,06,43,14.70
2007,07,09,06,44,14.70
2007,07,09,06,45,14.80
2007,07,09,06,46,14.90
2007,07,09,06,47,15.00
2007,07,09,06,48,15.00
2007,07,09,06,49,15.00
2007,07,09,06,50,15.00
2007,07,09,06,51,15.00
2007,07,09,06,52,15.10
2007,07,09,06,53,15.10
2007,07,09,06,54,15.20
2007,07,09,06,55,15.20
2007,07,09,06,56,15.20
2007,07,09,06,57,15.30
2007,07,09,06,58,15.30
2007,07,09,06,59,15.20
2007,07,09,07,00,15.20
2007,07,09,07,01,15.20
2007,07,09,07,02,15.20
2007,07,09,07,03,15.20
2007,07,09,07,04,15.20
2007,07,09,07,05,15.20
2007,07,09,07,06,15.20
2007,07,09,07,07,15.30
2007,07,09,07,08,15.40
2007,07,09,07,09,15.50
2007,07,09,07,10,15.50
2007,07,09,07,11,15.60
2007,07,09,07,12,15.70
2007,07,09,07,13,15.70
2007,07,09,07,14,15.80
2007,07,09,07,15,15.80
2007,07,09,07,16,15.90
2007,07,09,07,17,16.00
2007,07,09,07,18,16.10
2007,07,09,07,19,16.20
2007,07,09,07,20,16.20
2007,07,09,07,21,16.40
2007,07,09,07,22,16.50
2007,07,09,07,23,16.50
2007,07,09,07,24,16.60
2007,07,09,07,25,16.70
2007,07,09,07,26,16.80
2007,07,09,07,27,16.90
2007,07,09,07,28,17.00
2007,07,09,07,29,17.10
2007,07,09,07,30,17.20
2007,07,09,07,31,17.30
2007,07,09,07,32,17.40
2007,07,09,07,33,17.50
2007,07,09,07,34,17.50
2007,07,09,07,35,17.30
2007,07,09,07,36,17.00
2007,07,09,07,37,16.80
2007,07,09,07,38,16.70
2007,07,09,07,39,16.60
2007,07,09,07,40,16.60
2007,07,09,07,41,16.50
2007,07,09,07,42,16.50
2007,07,09,07,43,16.50
2007,07,09,07,44,16.40
2007,07,09,07,45,16.40
2007,07,09,07,46,16.40
2007,07,09,07,47,16.40
2007,07,09,07,48,16.40
2007,07,09,07,49,16.40
2007,07,09,07,50,16.40
2007,07,09,07,51,16.50
2007,07,09,07,52,16.50
2007,07,09,07,53,16.60
2007,07,09,07,54,16.70
2007,07,09,07,55,16.80
2007,07,09,07,56,16.90
2007,07,09,07,57,17.00
2007,07,09,07,58,17.10
2007,07,09,07,59,17.20
2007,07,09,08,00,17.40
2007,07,09,08,01,17.50
2007,07,09,08,02,17.60
2007,07,09,08,03,17.70
2007,07,09,08,04,17.80
2007,07,09,08,05,17.90
2007,07,09,08,06,17.90
2007,07,09,08,07,18.00
2007,07,09,08,08,18.10
2007,07,09,08,09,18.20
2007,07,09,08,10,18.20
2007,07,09,08,11,18.30
2007,07,09,08,12,18.30
2007,07,09,08,13,18.40
2007,07,09,08,14,18.50
2007,07,09,08,15,18.50
2007,07,09,08,16,18.50
2007,07,09,08,17,18.60
2007,07,09,08,18,18.70
2007,07,09,08,19,18.60
2007,07,09,08,20,18.60
2007,07,09,08,21,18.70
2007,07,09,08,22,18.70
2007,07,09,08,23,18.80
2007,07,09,08,24,18.80
2007,07,09,08,25,18.90
2007,07,09,08,26,19.00
2007,07,09,08,27,19.10
2007,07,09,08,28,19.10
2007,07,09,08,29,19.10
2007,07,09,08,30,19.00
2007,07,09,08,31,19.00
2007,07,09,08,32,19.00
2007,07,09,08,33,19.00
2007,07,09,08,34,18.90
2007,07,09,08,35,18.90
2007,07,09,08,36,18.90
2007,07,09,08,37,18.90
2007,07,09,08,38,18.90
2007,07,09,08,39,18.90
2007,07,09,08,40,18.90
2007,07,09,08,41,18.90
2007,07,09,08,42,18.90
2007,07,09,08,43,18.80
2007,07,09,08,44,18.80
2007,07,09,08,45,18.80
2007,07,09,08,46,18.90
2007,07,09,08,47,18.90
2007,07,09,08,48,19.00
2007,07,09,08,49,19.00
2007,07,09,08,50,19.10
2007,07,09,08,51,19.20
2007,07,09,08,52,19.20
2007,07,09,08,53,19.20
2007,07,09,08,54,19.20
2007,07,09,08,55,19.30
2007,07,09,08,56,19.30
2007,07,09,08,57,19.30
2007,07,09,08,58,19.20
2007,07,09,08,59,19.30
2007,07,09,09,00,19.30
2007,07,09,09,01,19.30
2007,07,09,09,02,19.30
2007,07,09,09,03,19.30
2007,07,09,09,04,19.30
2007,07,09,09,05,19.40
2007,07,09,09,06,19.50
2007,07,09,09,07,19.50
2007,07,09,09,08,19.50
2007,07,09,09,09,19.50
2007,07,09,09,10,19.60
2007,07,09,09,11,19.60
2007,07,09,09,12,19.50
2007,07,09,09,13,19.40
2007,07,09,09,14,19.40
2007,07,09,09,15,19.50
2007,07,09,09,16,19.50
2007,07,09,09,17,19.60
2007,07,09,09,18,19.50
2007,07,09,09,19,19.50
2007,07,09,09,20,19.50
2007,07,09,09,21,19.60
2007,07,09,09,22,19.70
2007,07,09,09,23,19.80
2007,07,09,09,24,19.90
2007,07,09,09,25,20.00
2007,07,09,09,26,20.20
2007,07,09,09,27,20.30
2007,07,09,09,28,20.30
2007,07,09,09,29,19.80
2007,07,09,09,30,18.70
2007,07,09,09,31,17.80
2007,07,09,09,32,17.20
2007,07,09,09,33,16.80
2007,07,09,09,34,16.60
2007,07,09,09,35,16.30
2007,07,09,09,36,16.10
2007,07,09,09,37,16.00
2007,07,09,09,38,15.80
2007,07,09,09,39,15.70
2007,07,09,09,40,15.60
2007,07,09,09,41,15.60
2007,07,09,09,42,15.70
2007,07,09,09,43,15.70
2007,07,09,09,44,15.70
2007,07,09,09,45,15.70
2007,07,09,09,46,15.80
2007,07,09,09,47,15.90
2007,07,09,09,48,15.90
2007,07,09,09,49,15.80
2007,07,09,09,50,15.70
2007,07,09,09,51,15.70
2007,07,09,09,52,15.50
2007,07,09,09,53,15.40
2007,07,09,09,54,15.40
2007,07,09,09,55,15.30
2007,07,09,09,56,15.00
2007,07,09,09,57,15.00
2007,07,09,09,58,14.80
2007,07,09,09,59,14.80
2007,07,09,10,00,14.80
2007,07,09,10,01,14.90
2007,07,09,10,02,15.00
2007,07,09,10,03,15.00
2007,07,09,10,04,14.90
2007,07,09,10,05,14.80
2007,07,09,10,06,14.60
2007,07,09,10,07,14.50
2007,07,09,10,08,14.40
2007,07,09,10,09,14.40
2007,07,09,10,10,14.50
2007,07,09,10,11,14.60
2007,07,09,10,12,14.80
2007,07,09,10,13,14.90
2007,07,09,10,14,14.90
2007,07,09,10,15,14.70
2007,07,09,10,16,14.60
2007,07,09,10,17,14.70
2007,07,09,10,18,14.80
2007,07,09,10,19,14.80
2007,07,09,10,20,14.90
2007,07,09,10,21,14.80
2007,07,09,10,22,14.80
2007,07,09,10,23,14.80
2007,07,09,10,24,14.90
2007,07,09,10,25,14.90
2007,07,09,10,26,15.00
2007,07,09,10,27,15.00
2007,07,09,10,28,15.00
2007,07,09,10,29,15.20
2007,07,09,10,30,15.40
2007,07,09,10,31,15.60
2007,07,09,10,32,15.80
2007,07,09,10,33,16.00
2007,07,09,10,34,16.10
2007,07,09,10,35,16.00
2007,07,09,10,36,16.00
2007,07,09,10,37,16.10
2007,07,09,10,38,16.10
2007,07,09,10,39,16.00
2007,07,09,10,40,15.90
2007,07,09,10,41,15.90
2007,07,09,10,42,15.70
2007,07,09,10,43,15.60
2007,07,09,10,44,15.50
2007,07,09,10,45,15.50
2007,07,09,10,46,15.50
2007,07,09,10,47,15.50
2007,07,09,10,48,15.40
2007,07,09,10,49,15.50
2007,07,09,10,50,15.60
2007,07,09,10,51,15.60
2007,07,09,10,52,15.60
2007,07,09,10,53,15.40
2007,07,09,10,54,15.30
2007,07,09,10,55,15.30
2007,07,09,10,56,15.30
2007,07,09,10,57,15.40
2007,07,09,10,58,15.50
2007,07,09,10,59,15.60
2007,07,09,11,00,15.60
2007,07,09,11,01,15.70
2007,07,09,11,02,15.70
2007,07,09,11,03,15.70
2007,07,09,11,04,15.80
2007,07,09,11,05,15.90
2007,07,09,11,06,15.90
2007,07,09,11,07,15.90
2007,07,09,11,08,16.00
2007,07,09,11,09,16.10
2007,07,09,11,10,16.20
2007,07,09,11,11,16.30
2007,07,09,11,12,16.50
2007,07,09,11,13,16.70
2007,07,09,11,14,16.90
2007,07,09,11,15,17.10
2007,07,09,11,16,17.30
2007,07,09,11,17,17.30
2007,07,09,11,18,17.40
2007,07,09,11,19,17.50
2007,07,09,11,20,17.60
2007,07,09,11,21,17.70
2007,07,09,11,22,17.70
2007,07,09,11,23,17.60
2007,07,09,11,24,17.60
2007,07,09,11,25,17.70
2007,07,09,11,26,17.70
2007,07,09,11,27,17.80
2007,07,09,11,28,17.90
2007,07,09,11,29,18.00
2007,07,09,11,30,18.20
2007,07,09,11,31,18.30
2007,07,09,11,32,18.30
2007,07,09,11,33,18.30
2007,07,09,11,34,18.50
2007,07,09,11,35,18.60
2007,07,09,11,36,18.60
2007,07,09,11,37,18.50
2007,07,09,11,38,18.50
2007,07,09,11,39,18.50
2007,07,09,11,40,18.60
2007,07,09,11,41,18.60
2007,07,09,11,42,18.70
2007,07,09,11,43,18.80
2007,07,09,11,44,18.80
2007,07,09,11,45,18.80
2007,07,09,11,46,18.90
2007,07,09,11,47,19.00
2007,07,09,11,48,19.10
2007,07,09,11,49,19.20
2007,07,09,11,50,19.20
2007,07,09,11,51,19.20
2007,07,09,11,52,19.20
2007,07,09,11,53,19.30
2007,07,09,11,54,19.30
2007,07,09,11,55,19.20
2007,07,09,11,56,19.10
2007,07,09,11,57,19.10
2007,07,09,11,58,19.20
2007,07,09,11,59,19.40
2007,07,09,12,00,19.60
2007,07,09,12,01,19.80
2007,07,09,12,02,20.00
2007,07,09,12,03,20.10
2007,07,09,12,04,20.30
2007,07,09,12,05,20.40
2007,07,09,12,06,20.50
2007,07,09,12,07,20.60
2007,07,09,12,08,20.70
2007,07,09,12,09,20.60
2007,07,09,12,10,20.50
2007,07,09,12,11,20.40
2007,07,09,12,12,20.20
2007,07,09,12,13,20.20
2007,07,09,12,14,20.20
2007,07,09,12,15,20.30
2007,07,09,12,16,20.40
2007,07,09,12,17,20.30
2007,07,09,12,18,20.20
2007,07,09,12,19,20.00
2007,07,09,12,20,19.90
2007,07,09,12,21,19.80
2007,07,09,12,22,19.80
2007,07,09,12,23,19.80
2007,07,09,12,24,19.90
2007,07,09,12,25,20.00
2007,07,09,12,26,20.20
2007,07,09,12,27,20.40
2007,07,09,12,28,20.50
2007,07,09,12,29,20.50
2007,07,09,12,30,20.50
2007,07,09,12,31,20.60
2007,07,09,12,32,20.80
2007,07,09,12,33,21.00
2007,07,09,12,34,21.20
2007,07,09,12,35,21.30
2007,07,09,12,36,21.40
2007,07,09,12,37,21.60
2007,07,09,12,38,21.80
2007,07,09,12,39,21.70
2007,07,09,12,40,21.50
2007,07,09,12,41,21.50
2007,07,09,12,42,21.40
2007,07,09,12,43,21.50
2007,07,09,12,44,21.50
2007,07,09,12,45,21.50
2007,07,09,12,46,21.60
2007,07,09,12,47,21.50
2007,07,09,12,48,21.50
2007,07,09,12,49,21.40
2007,07,09,12,50,21.40
2007,07,09,12,51,21.50
2007,07,09,12,52,21.60
2007,07,09,12,53,21.60
2007,07,09,12,54,21.60
2007,07,09,12,55,21.60
2007,07,09,12,56,21.60
2007,07,09,12,57,21.70
2007,07,09,12,58,21.80
2007,07,09,12,59,21.90
2007,07,09,13,00,21.90
2007,07,09,13,01,21.90
2007,07,09,13,02,22.00
2007,07,09,13,03,22.00
2007,07,09,13,04,22.10
2007,07,09,13,05,22.20
2007,07,09,13,06,22.30
2007,07,09,13,07,22.30
2007,07,09,13,08,22.20
2007,07,09,13,09,22.00
2007,07,09,13,10,22.00
2007,07,09,13,11,22.00
2007,07,09,13,12,21.90
2007,07,09,13,13,21.80
2007,07,09,13,14,21.80
2007,07,09,13,15,21.80
2007,07,09,13,16,21.90
2007,07,09,13,17,22.00
2007,07,09,13,18,22.10
2007,07,09,13,19,22.10
2007,07,09,13,20,22.10
2007,07,09,13,21,22.10
2007,07,09,13,22,22.10
2007,07,09,13,23,22.10
2007,07,09,13,24,22.10
2007,07,09,13,25,22.00
2007,07,09,13,26,21.90
2007,07,09,13,27,21.90
2007,07,09,13,28,21.90
2007,07,09,13,29,21.90
2007,07,09,13,30,21.90
2007,07,09,13,31,21.80
2007,07,09,13,32,21.70
2007,07,09,13,33,21.40
2007,07,09,13,34,21.20
2007,07,09,13,35,20.90
2007,07,09,13,36,20.70
2007,07,09,13,37,20.70
2007,07,09,13,38,20.70
2007,07,09,13,39,20.70
2007,07,09,13,40,20.80
2007,07,09,13,41,20.90
2007,07,09,13,42,21.00
2007,07,09,13,43,21.00
2007,07,09,13,44,20.90
2007,07,09,13,45,20.90
2007,07,09,13,46,20.70
2007,07,09,13,47,20.70
2007,07,09,13,48,20.80
2007,07,09,13,49,20.80
2007,07,09,13,50,20.90
2007,07,09,13,51,21.00
2007,07,09,13,52,21.10
2007,07,09,13,53,21.10
2007,07,09,13,54,21.20
2007,07,09,13,55,21.30
2007,07,09,13,56,21.20
2007,07,09,13,57,21.20
2007,07,09,13,58,21.30
2007,07,09,13,59,21.30
2007,07,09,14,00,21.30
2007,07,09,14,01,21.30
2007,07,09,14,02,21.40
2007,07,09,14,03,21.60
2007,07,09,14,04,21.70
2007,07,09,14,05,21.60
2007,07,09,14,06,21.50
2007,07,09,14,07,21.40
2007,07,09,14,08,21.30
2007,07,09,14,09,21.30
2007,07,09,14,10,21.40
2007,07,09,14,11,21.50
2007,07,09,14,12,21.50
2007,07,09,14,13,21.60
2007,07,09,14,14,21.80
2007,07,09,14,15,21.80
2007,07,09,14,16,21.70
2007,07,09,14,17,21.50
2007,07,09,14,18,21.30
2007,07,09,14,19,21.20
2007,07,09,14,20,21.20
2007,07,09,14,21,21.00
2007,07,09,14,22,20.90
2007,07,09,14,23,20.70
2007,07,09,14,24,20.50
2007,07,09,14,25,20.30
2007,07,09,14,26,20.20
2007,07,09,14,27,20.10
2007,07,09,14,28,20.30
2007,07,09,14,29,20.40
2007,07,09,14,30,20.30
2007,07,09,14,31,20.30
2007,07,09,14,32,20.40
2007,07,09,14,33,20.40
2007,07,09,14,34,20.20
2007,07,09,14,35,20.20
2007,07,09,14,36,20.10
2007,07,09,14,37,20.00
2007,07,09,14,38,19.90
2007,07,09,14,39,19.80
2007,07,09,14,40,19.90
2007,07,09,14,41,19.90
2007,07,09,14,42,19.80
2007,07,09,14,43,19.80
2007,07,09,14,44,19.80
2007,07,09,14,45,19.80
2007,07,09,14,46,19.70
2007,07,09,14,47,19.70
2007,07,09,14,48,19.60
2007,07,09,14,49,19.60
2007,07,09,14,50,19.70
2007,07,09,14,51,19.70
2007,07,09,14,52,19.70
2007,07,09,14,53,19.70
2007,07,09,14,54,19.80
2007,07,09,14,55,19.80
2007,07,09,14,56,19.80
2007,07,09,14,57,19.90
2007,07,09,14,58,19.90
2007,07,09,14,59,19.90
2007,07,09,15,00,19.80
2007,07,09,15,01,19.70
2007,07,09,15,02,19.60
2007,07,09,15,03,19.50
2007,07,09,15,04,19.50
2007,07,09,15,05,19.50
2007,07,09,15,06,19.60
2007,07,09,15,07,19.60
2007,07,09,15,08,19.70
2007,07,09,15,09,19.80
2007,07,09,15,10,19.90
2007,07,09,15,11,20.00
2007,07,09,15,12,20.20
2007,07,09,15,13,20.40
2007,07,09,15,14,20.60
2007,07,09,15,15,20.60
2007,07,09,15,16,20.60
2007,07,09,15,17,20.60
2007,07,09,15,18,20.60
2007,07,09,15,19,20.60
2007,07,09,15,20,20.60
2007,07,09,15,21,20.60
2007,07,09,15,22,20.60
2007,07,09,15,23,20.60
2007,07,09,15,24,20.60
2007,07,09,15,25,20.70
2007,07,09,15,26,20.70
2007,07,09,15,27,20.70
2007,07,09,15,28,20.70
2007,07,09,15,29,20.70
2007,07,09,15,30,20.80
2007,07,09,15,31,20.90
2007,07,09,15,32,20.90
2007,07,09,15,33,21.00
2007,07,09,15,34,21.20
2007,07,09,15,35,21.40
2007,07,09,15,36,21.50
2007,07,09,15,37,21.60
2007,07,09,15,38,21.80
2007,07,09,15,39,21.80
2007,07,09,15,40,21.70
2007,07,09,15,41,21.60
2007,07,09,15,42,21.50
2007,07,09,15,43,21.50
2007,07,09,15,44,21.50
2007,07,09,15,45,21.50
2007,07,09,15,46,21.40
2007,07,09,15,47,21.40
2007,07,09,15,48,21.40
2007,07,09,15,49,21.30
2007,07,09,15,50,21.30
2007,07,09,15,51,21.20
2007,07,09,15,52,21.10
2007,07,09,15,53,21.10
2007,07,09,15,54,21.10
2007,07,09,15,55,21.10
2007,07,09,15,56,21.20
2007,07,09,15,57,21.30
2007,07,09,15,58,21.30
2007,07,09,15,59,21.40
2007,07,09,16,00,21.40
2007,07,09,16,01,21.30
2007,07,09,16,02,21.30
2007,07,09,16,03,21.40
2007,07,09,16,04,21.50
2007,07,09,16,05,21.60
2007,07,09,16,06,21.70
2007,07,09,16,07,21.80
2007,07,09,16,08,21.80
2007,07,09,16,09,21.90
2007,07,09,16,10,22.00
2007,07,09,16,11,22.10
2007,07,09,16,12,22.10
2007,07,09,16,13,22.00
2007,07,09,16,14,21.90
2007,07,09,16,15,21.80
2007,07,09,16,16,21.80
2007,07,09,16,17,21.80
2007,07,09,16,18,21.80
2007,07,09,16,19,21.90
2007,07,09,16,20,22.00
2007,07,09,16,21,22.00
2007,07,09,16,22,22.10
2007,07,09,16,23,22.20
2007,07,09,16,24,22.20
2007,07,09,16,25,22.20
2007,07,09,16,26,22.20
2007,07,09,16,27,22.20
2007,07,09,16,28,22.20
2007,07,09,16,29,22.20
2007,07,09,16,30,22.10
2007,07,09,16,31,22.10
2007,07,09,16,32,22.10
2007,07,09,16,33,22.20
2007,07,09,16,34,22.30
2007,07,09,16,35,22.50
2007,07,09,16,36,22.60
2007,07,09,16,37,22.70
2007,07,09,16,38,22.80
2007,07,09,16,39,22.80
2007,07,09,16,40,22.80
2007,07,09,16,41,22.90
2007,07,09,16,42,22.90
2007,07,09,16,43,22.90
2007,07,09,16,44,23.00
2007,07,09,16,45,23.10
2007,07,09,16,46,23.30
2007,07,09,16,47,23.40
2007,07,09,16,48,23.60
2007,07,09,16,49,23.70
2007,07,09,16,50,23.70
2007,07,09,16,51,23.70
2007,07,09,16,52,23.70
2007,07,09,16,53,23.70
2007,07,09,16,54,23.80
2007,07,09,16,55,23.80
2007,07,09,16,56,23.80
2007,07,09,16,57,23.90
2007,07,09,16,58,23.90
2007,07,09,16,59,24.00
2007,07,09,17,00,24.00
2007,07,09,17,01,23.90
2007,07,09,17,02,23.90
2007,07,09,17,03,23.90
2007,07,09,17,04,24.00
2007,07,09,17,05,24.10
2007,07,09,17,06,24.10
2007,07,09,17,07,24.10
2007,07,09,17,08,24.10
2007,07,09,17,09,24.10
2007,07,09,17,10,24.10
2007,07,09,17,11,24.10
2007,07,09,17,12,24.10
2007,07,09,17,13,24.20
2007,07,09,17,14,24.10
2007,07,09,17,15,24.20
2007,07,09,17,16,24.20
2007,07,09,17,17,24.20
2007,07,09,17,18,24.20
2007,07,09,17,19,24.10